Change the Weather History Date:

Sunday, April 13, 2014

  Actual Average Record
Temperature  
Mean Temperature 32 °F 43 °F  
Max Temperature 38 °F 55 °F 89 °F (2003)
Min Temperature 25 °F 32 °F 5 °F (1881)
Degree Days  
Heating Degree Days 33 22  
Month to date heating degree days 330 330  
Since 1 July heating degree days 8923 8160  
Cooling Degree Days 0 0  
Month to date cooling degree days 0 0  
Year to date cooling degree days 0 0  
Moisture  
Dew Point 21 °F    
Average Humidity 67    
Maximum Humidity 85    
Minimum Humidity 49    
Precipitation  
Precipitation T in 0.05 in 1.38 in (1912)
Month to date precipitation 0.46 0.52  
Year to date precipitation 2.06 3.13  
Snow  
Snow T in 0.10 in 3.30 in (1964)
Month to date snowfall 0.5 1.6  
Since 1 July snowfall 33.4 48.7  
Snow Depth 0.00 in    
Sea Level Pressure  
Sea Level Pressure 30.11 in    
Wind  
Wind Speed 22 mph (NNW)    
Max Wind Speed 37 mph    
Max Gust Speed 42 mph    
Visibility 10 miles    
Events Snow    
T = Trace of Precipitation, MM = Missing Value Source: NWS Daily Summary

Daily Weather History Graph

Daily Weather History Graph

Search for Another Location

Airport or City:

Trip Planner

Search our weather history database for the weather conditions in past years. The results will help you decide how hot, cold, wet, or windy it might be!

Date:

Astronomy

Apr. 13, 2014 Rise Set
Actual Time 6:43 AM CDT 8:13 PM CDT
Civil Twilight 6:11 AM CDT 8:44 PM CDT
Nautical Twilight 5:33 AM CDT 9:23 PM CDT
Astronomical Twilight 4:51 AM CDT 10:05 PM CDT
Moon 6:47 PM CDT (4/13) 5:49 AM CDT (4/13)
Length of Visible Light 14h 33m
Length of Day
13h 29m
Waxing Gibbous, 97% of the Moon is Illuminated
Apr 13
Waxing Gibbous
Apr 15
Full
Apr 22
Last Quarter
Apr 29
New
May 6
First Quarter

Hourly Weather History & Observations

Time (CDT) Temp. Windchill Dew Point Humidity Pressure Visibility Wind Dir Wind Speed Gust Speed Precip Events Conditions
12:53 AM 37.9 °F 28.5 °F 33.1 °F 83% 29.90 in 10.0 mi North 17.3 mph 26.5 mph N/A   Overcast
1:53 AM 36.0 °F 23.7 °F 30.9 °F 82% 29.91 in 10.0 mi North 26.5 mph 35.7 mph 0.00 in Snow Light Snow
2:24 AM 34.0 °F 22.4 °F 28.0 °F 79% 29.92 in 9.0 mi NNW 20.7 mph 32.2 mph 0.00 in   Overcast
2:53 AM 34.0 °F 22.4 °F 28.0 °F 79% 29.97 in 10.0 mi NNW 20.7 mph - 0.00 in   Overcast
3:53 AM 32.0 °F 19.8 °F 26.1 °F 79% 30.01 in 10.0 mi North 20.7 mph - N/A   Overcast
4:53 AM 30.9 °F 18.4 °F 25.0 °F 79% 30.02 in 10.0 mi North 20.7 mph - N/A   Overcast
5:53 AM 30.9 °F 19.4 °F 24.1 °F 76% 30.05 in 10.0 mi NNW 17.3 mph - N/A   Overcast
6:53 AM 30.0 °F 18.7 °F 23.0 °F 75% 30.06 in 10.0 mi NNW 16.1 mph - N/A   Overcast
7:53 AM 28.9 °F 15.8 °F 21.9 °F 75% 30.09 in 10.0 mi NNW 20.7 mph - N/A   Overcast
8:53 AM 30.0 °F 17.5 °F 21.9 °F 72% 30.11 in 10.0 mi NNW 19.6 mph - N/A   Overcast
9:53 AM 28.0 °F 14.3 °F 19.9 °F 72% 30.13 in 10.0 mi NNW 21.9 mph 31.1 mph N/A   Overcast
10:53 AM 28.0 °F 13.3 °F 19.9 °F 72% 30.15 in 10.0 mi North 25.3 mph 34.5 mph 0.00 in   Overcast
11:53 AM 28.0 °F 12.8 °F 19.9 °F 72% 30.15 in 10.0 mi North 27.6 mph 34.5 mph 0.00 in   Overcast
12:53 PM 28.9 °F 14.0 °F 19.9 °F 69% 30.15 in 9.0 mi North 27.6 mph 34.5 mph 0.00 in   Overcast
1:53 PM 32.0 °F 19.8 °F 21.0 °F 64% 30.19 in 10.0 mi North 20.7 mph 32.2 mph 0.00 in   Mostly Cloudy
2:53 PM 33.1 °F 19.3 °F 21.0 °F 61% 30.17 in 9.0 mi North 28.8 mph 36.8 mph 0.00 in   Overcast
3:53 PM 33.1 °F 18.7 °F 19.9 °F 59% 30.17 in 10.0 mi North 32.2 mph 41.4 mph N/A   Mostly Cloudy
4:53 PM 34.0 °F 21.0 °F 19.9 °F 56% 30.17 in 10.0 mi North 26.5 mph 38.0 mph N/A   Mostly Cloudy
5:01 PM 32.0 °F 18.4 °F 19.0 °F 59% 30.13 in 10.0 mi North 26.5 mph 32.2 mph N/A   Scattered Clouds
5:53 PM 34.0 °F 21.8 °F 19.9 °F 56% 30.19 in 10.0 mi North 23.0 mph 31.1 mph N/A   Overcast
6:53 PM 30.2 °F 15.4 °F 17.6 °F 60% 30.14 in 10.0 mi North 28.8 mph 38.0 mph N/A   Partly Cloudy
7:53 PM 30.0 °F 16.0 °F 14.0 °F 51% 30.21 in 10.0 mi North 25.3 mph 34.5 mph N/A   Clear
8:53 PM 28.0 °F 15.3 °F 15.1 °F 58% 30.21 in 10.0 mi North 18.4 mph - N/A   Clear
9:53 PM 27.0 °F 13.2 °F 15.1 °F 61% 30.23 in 10.0 mi North 20.7 mph - N/A   Clear
10:53 PM 26.1 °F 13.1 °F 15.1 °F 63% 30.24 in 10.0 mi North 17.3 mph - N/A   Clear
11:53 PM 25.0 °F 12.6 °F 16.0 °F 69% 30.25 in 10.0 mi NNW 15.0 mph - N/A   Partly Cloudy